Location: Jackson Park
(37.2862°N, 79.9123°W)
Time: 02:42:18
(UTC+00:00)

Tiros 1 despin weight - Pass Details

Date: 13 May 2026
Orbit: 554 x 591 km, 48.2° (Epoch: 6 June)

Event Time Altitude Azimuth Distance (km) Brightness Sun altitude
Rises 15:23:27 0° 307° (NW) 2,732 ? 59.0°
Reaches altitude 10° 15:25:59 10° 320° (NW) 1,834 ? 59.5°
Maximum altitude 15:29:32 26° 18° (NNE) 1,109 ? 60.1°
Drops below altitude 10° 15:33:05 10° 76° (ENE) 1,832 ? 60.7°
Sets 15:35:37 0° 89° (E) 2,728 ? 61.1°
